Probability
0 0 0 0 0 0 0 0 0 0 0 0 0 1 3 5 6 6 7 10 14 18 21 23 24 27 32 35 35 34 34 35 31 26 27 29 27 23 17 14 15 18 19 18
0 0 0 0 0 0 0 0 0 0 0 0 0 1 3 4 6 6 6 8 11 17 23 27 27 27 31 35 35 33 33 34 33 31 33 34 30 24 17 14 15 17 18 16
0 0 0 0 0 0 0 0 0 0 0 0 0 1 3 4 5 5 5 5 7 15 24 28 28 28 30 34 35 33 34 35 35 35 36 35 31 24 18 16 17 17 15 14
0 0 0 0 0 0 0 0 0 0 0 0 0 1 2 5 5 5 5 5 6 12 21 25 25 26 30 34 36 36 35 36 34 33 33 31 28 24 21 19 18 16 15 14
0 0 0 0 0 0 0 0 0 0 0 0 0 0 1 3 4 5 5 5 7 12 17 19 20 23 29 33 36 37 36 34 31 29 29 28 25 24 23 22 19 16 15 14
0 0 0 0 0 0 0 0 0 0 0 0 0 0 0 1 2 2 3 5 9 13 15 15 16 21 26 31 33 33 33 31 28 26 25 24 23 23 23 22 19 16 15 14
0 0 0 0 0 1 0 0 0 0 0 0 0 1 1 1 1 1 2 5 9 12 14 14 15 20 26 30 30 28 27 27 25 23 21 20 20 21 21 19 17 15 14 13
0 0 0 0 0 0 0 0 0 0 0 0 1 2 3 3 3 3 3 6 9 11 12 13 16 21 26 29 28 25 23 23 23 22 20 19 18 17 16 16 15 14 13 12
0 0 1 0 0 0 0 0 0 1 0 0 1 3 5 6 5 5 4 6 10 12 12 14 18 24 27 28 27 25 23 21 22 22 21 19 17 15 13 13 13 13 12 11
0 0 0 0 0 0 0 0 0 1 1 0 0 2 5 6 6 5 4 7 11 14 14 16 21 26 28 27 26 25 23 19 18 18 17 16 15 13 11 10 10 11 10 10
0 0 0 0 0 0 0 0 0 0 1 1 1 2 3 5 6 6 6 8 13 16 17 20 23 25 25 23 20 19 18 15 12 12 12 13 12 11 9 7 8 9 9 9
0 0 0 0 0 0 0 0 0 0 0 1 2 3 4 5 7 8 9 11 15 18 18 20 22 22 21 17 13 11 11 11 9 8 9 11 10 9 8 7 7 8 7 6
1 1 1 0 0 0 0 0 0 0 0 1 2 3 4 5 6 8 9 11 16 18 18 19 20 20 18 14 9 7 7 8 7 6 7 8 9 8 8 8 7 6 5 5
1 1 1 0 0 0 0 0 0 0 0 0 1 2 3 4 5 5 6 9 13 16 17 19 19 19 17 15 10 6 5 6 5 4 4 5 6 6 6 7 6 5 5 6
1 1 0 0 0 0 0 0 0 0 0 0 0 2 4 5 4 3 4 7 11 14 17 19 19 19 19 17 13 7 5 5 3 3 2 3 3 3 3 4 5 6 6 6
4 2 1 0 0 0 0 0 0 0 0 0 1 2 4 6 5 4 4 5 8 13 17 19 19 19 19 18 13 8 6 4 2 1 1 1 1 1 1 1 3 5 6 7
7 6 3 0 0 0 0 0 0 0 0 0 1 2 4 6 6 4 4 4 7 11 16 18 19 19 19 18 15 9 5 3 1 0 0 0 0 0 0 0 1 4 7 10
12 11 5 1 0 0 0 0 0 0 0 0 1 1 3 4 4 4 5 6 7 10 15 18 19 20 20 20 17 10 4 1 0 0 0 0 0 0 0 0 1 4 8 11
15 13 8 2 1 0 0 0 0 0 0 0 0 1 2 3 4 6 8 9 9 10 14 17 18 19 21 22 18 12 6 2 0 0 0 0 0 0 0 1 3 6 9 10
11 12 9 5 3 1 0 0 0 1 2 3 3 3 4 6 8 10 12 13 12 12 14 16 16 19 22 23 20 14 9 6 3 1 0 1 1 1 1 3 5 7 8 8
6 8 7 6 5 2 1 1 2 4 6 8 8 7 8 10 12 12 14 16 15 15 15 15 16 19 23 23 20 16 13 11 7 4 3 4 4 2 2 4 6 8 7 7
4 5 6 7 6 4 3 3 5 7 9 9 8 8 9 11 11 10 12 14 15 15 15 15 16 20 22 22 20 17 15 14 11 9 8 8 6 3 2 3 6 7 7 6
5 6 8 9 8 6 4 4 5 6 7 6 5 4 5 7 8 7 9 12 13 13 14 14 15 17 19 19 18 17 15 13 13 13 12 10 7 5 3 4 4 5 6 6
5 7 9 10 9 6 4 4 4 3 3 3 2 1 2 4 5 6 7 10 12 13 13 13 13 14 15 15 15 14 12 11 11 12 12 10 8 7 6 5 4 5 6 6
4 6 8 9 7 4 2 2 2 1 1 1 0 0 0 2 3 4 6 9 12 13 14 13 13 13 13 13 12 10 9 9 10 12 11 8 6 6 5 4 4 4 5 4
3 6 9 8 6 3 1 1 1 0 0 0 0 0 0 1 2 4 5 9 12 13 13 14 14 13 12 11 10 8 9 9 11 12 10 6 4 4 2 2 3 3 2 2
Wind_Speed
10 10 10 11 10 9 9 8 7 8 5 3 4 4 4 6 5 4 5 5 4 4 5 5 4 4 3 3 3 2 2 2 1 1 1 1 1 1 1 1 1 1 1 1
9 13 13 11 7 8 10 9 8 6 4 3 4 4 5 6 6 5 5 4 4 4 4 5 4 4 3 3 3 2 1 2 0 0 1 1 1 1 1 0 1 1 1 1
12 11 11 10 8 9 10 9 8 6 6 7 6 5 4 5 5 5 5 3 3 4 5 4 3 3 3 3 2 2 2 1 0 0 1 1 1 1 0 0 0 1 1 1
12 11 11 9 8 9 8 6 8 8 7 6 6 5 4 5 5 4 3 3 3 4 5 4 3 3 3 2 2 2 2 2 1 1 1 1 1 1 1 0 0 0 1 1
11 10 10 10 8 8 8 7 8 8 8 7 6 6 3 6 5 4 3 4 4 4 5 2 2 3 3 3 3 3 3 2 1 0 1 1 1 1 1 1 1 1 0 1
12 10 10 9 7 6 6 8 9 9 7 7 6 6 3 3 5 5 4 4 5 5 5 3 3 3 3 3 3 4 3 2 1 0 1 1 2 2 1 1 1 1 0 0
11 8 8 8 7 6 6 6 5 5 4 5 4 5 0 4 5 5 5 5 5 5 4 4 3 3 3 2 3 3 3 2 1 1 1 2 2 1 1 2 1 1 0 1
9 7 7 7 7 6 6 6 5 6 6 6 3 1 4 5 5 5 6 7 6 5 4 3 4 4 3 3 4 4 4 3 2 1 1 1 1 1 1 1 1 1 0 0
6 6 5 6 7 7 7 6 7 7 9 7 2 3 6 6 6 6 6 6 6 5 4 4 4 3 3 4 4 3 3 2 1 1 0 1 1 1 2 2 2 1 1 0
6 6 6 5 6 7 7 6 5 5 6 6 4 3 4 6 6 6 6 5 5 5 4 4 4 4 3 4 4 3 2 1 1 0 1 0 1 1 1 1 1 1 1 1
6 6 7 5 6 8 5 7 6 5 5 6 6 2 4 5 5 5 5 5 5 5 5 4 4 4 4 4 3 3 2 1 1 0 1 1 1 1 1 1 1 1 1 1
4 5 7 7 8 8 7 7 6 5 5 6 5 1 4 5 4 4 5 5 5 4 4 5 5 4 4 3 3 2 1 1 0 0 0 0 1 1 1 1 1 1 0 1
4 4 6 7 5 4 6 5 5 5 5 6 6 0 4 5 3 3 5 5 6 5 4 4 4 3 3 2 2 1 1 0 0 1 1 0 0 1 1 1 1 1 1 1
4 5 7 8 7 6 6 6 6 6 6 6 6 1 4 4 3 3 4 4 5 6 4 4 3 3 2 2 2 1 1 1 0 1 1 0 0 1 1 1 1 1 1 1
3 5 8 9 8 8 8 7 7 7 7 7 5 2 3 3 3 2 3 3 4 5 4 4 3 3 2 2 1 1 1 1 1 0 0 1 1 1 1 1 1 1 1 1
2 5 7 10 9 8 8 8 7 6 6 5 4 2 4 5 4 2 2 1 3 4 4 4 3 3 2 1 1 1 1 0 1 0 0 1 0 0 0 0 0 0 1 1
5 5 7 8 8 10 8 6 4 3 4 4 3 1 3 4 2 1 2 2 2 2 3 4 3 3 2 1 1 1 1 1 1 0 0 0 0 1 1 1 0 1 1 1
5 6 6 8 9 10 3 2 2 2 3 3 3 4 4 2 1 2 3 2 2 2 3 3 3 3 2 2 1 1 1 0 0 0 1 1 1 1 1 1 0 1 1 1
5 5 6 7 8 8 2 2 3 3 1 5 5 4 3 2 2 3 3 3 2 3 4 3 2 2 2 2 1 1 0 0 1 1 1 1 1 1 1 1 1 1 1 2
6 5 6 7 8 7 2 3 3 3 1 6 5 4 4 2 1 2 4 3 3 4 3 2 2 2 2 2 1 1 1 1 1 1 1 1 1 1 1 1 1 1 2 2
6 6 8 8 8 3 4 4 3 3 2 5 5 4 4 3 3 2 2 3 4 3 3 2 1 2 2 1 1 1 1 1 1 2 2 1 1 1 1 1 1 2 2 2
5 5 5 5 7 2 4 3 3 4 4 4 4 3 4 4 4 3 3 3 3 2 2 2 1 1 1 1 1 1 1 1 1 1 1 1 1 2 1 1 1 1 2 3
2 2 2 1 0 3 4 4 5 4 3 3 3 4 3 3 2 2 2 2 1 2 2 1 1 1 1 1 1 1 1 1 1 1 2 2 2 1 2 2 2 2 3 3
2 2 3 1 2 2 4 4 4 4 3 3 3 2 2 2 2 2 2 1 1 0 1 1 1 1 1 1 1 0 1 1 1 2 2 2 2 2 2 1 2 2 2 2
6 3 3 1 1 1 2 3 3 3 2 2 2 2 2 2 2 2 1 1 0 1 0 0 1 1 1 0 0 1 1 1 2 2 3 3 3 2 1 1 1 2 1 0
4 3 3 2 2 3 2 1 1 1 1 2 2 2 1 1 1 1 1 0 0 0 1 1 1 1 1 1 1 1 1 1 1 2 3 3 2 2 2 2 2 1 2 2
Wind_Direction
234 238 244 251 250 269 280 279 259 256 236 209 243 241 200 177 183 177 163 163 170 147 136 130 127 122 118 109 110 117 135 126 156 171 225 241 253 272 247 216 154 173 201 233
242 243 248 257 262 271 272 272 268 263 237 234 239 241 204 180 177 180 161 155 152 133 119 122 127 122 125 125 124 129 130 126 172 71 305 280 283 258 245 21 126 179 182 211
241 249 249 242 245 255 256 255 265 269 261 244 233 246 208 165 161 158 154 158 144 132 123 125 128 123 128 125 142 141 131 108 83 325 302 329 321 265 241 104 150 159 179 196
256 255 252 250 247 257 266 267 266 270 272 263 244 253 195 178 164 158 163 161 137 127 121 125 129 122 120 121 131 116 106 84 68 342 329 301 290 313 333 24 93 216 206 192
257 254 253 250 249 256 272 270 267 271 272 284 284 272 235 172 170 164 165 154 132 110 102 107 119 118 123 119 115 109 105 99 84 350 317 313 325 333 358 0 13 304 242 209
264 263 260 259 250 245 260 272 275 265 260 264 260 256 249 188 167 160 155 139 121 118 123 136 132 127 127 122 118 115 128 136 140 70 4 340 341 342 347 326 323 300 267 125
262 251 257 261 256 239 249 266 278 276 265 257 237 242 258 125 124 144 142 129 118 117 121 120 123 117 107 113 110 105 105 90 78 58 9 347 338 319 284 279 282 293 322 80
262 259 241 248 257 264 254 253 261 286 292 292 253 250 105 108 115 128 131 130 133 129 130 130 122 110 104 98 100 98 98 92 67 46 352 316 329 304 312 301 292 282 334 92
272 272 263 256 260 259 266 268 271 283 284 285 273 144 135 142 127 123 126 132 139 135 128 120 111 109 104 94 87 84 93 105 112 131 251 270 298 330 340 320 288 315 13 297
284 286 267 251 263 253 261 281 294 283 295 299 275 218 152 154 146 141 135 135 135 128 121 111 107 98 84 89 93 91 92 86 72 31 308 18 8 332 320 305 357 17 341 336
287 281 282 280 264 273 259 258 258 285 298 297 298 357 103 137 131 140 135 126 117 117 122 116 108 102 89 89 93 88 92 98 94 97 353 19 10 338 329 324 338 328 329 332
301 291 283 274 278 276 272 268 269 271 283 292 293 9 76 98 109 132 127 127 125 116 117 119 110 105 101 99 101 101 97 124 168 174 80 30 10 346 328 315 302 320 344 307
325 294 276 266 268 283 294 289 295 294 286 286 289 128 111 104 107 112 113 116 119 115 111 108 112 112 109 106 100 108 145 210 215 138 102 74 27 343 321 326 336 354 6 357
272 276 275 281 299 300 284 288 297 290 284 294 298 184 137 124 115 100 105 115 123 128 130 124 122 118 114 115 114 137 184 148 136 106 113 99 14 343 333 360 16 22 5 350
260 265 274 278 278 280 285 293 290 276 277 284 296 311 99 94 95 107 122 128 140 140 137 135 131 123 126 125 121 108 47 54 57 62 102 91 10 12 3 24 27 2 325 324
275 276 282 280 272 275 281 280 280 283 284 283 303 27 70 73 63 77 100 131 151 141 140 136 129 122 122 118 123 102 71 114 114 351 2 94 14 358 340 354 310 346 341 332
248 267 276 275 279 280 272 287 285 297 318 314 310 37 71 72 57 79 132 164 148 125 136 133 131 123 117 115 123 110 113 113 147 216 308 94 309 296 293 300 346 334 319 306
250 263 267 271 274 268 269 351 330 323 358 346 13 56 59 59 91 128 128 131 111 95 98 107 116 121 123 120 127 126 130 149 223 266 282 292 280 265 265 273 285 278 281 276
222 245 261 265 266 266 255 342 320 302 358 27 29 37 25 32 102 99 83 95 91 87 92 97 107 122 122 122 125 120 132 235 267 278 289 304 300 293 285 300 309 289 282 276
209 221 250 264 271 273 334 343 315 268 201 43 35 25 0 8 333 78 67 78 91 86 86 90 112 116 121 133 131 154 219 249 266 277 291 303 319 315 317 286 272 274 266 264
221 227 242 259 267 280 20 358 322 293 30 31 35 25 8 22 26 49 75 86 98 101 108 104 107 113 117 131 143 188 233 281 272 272 282 298 297 259 232 239 241 251 261 267
237 247 247 259 266 273 33 16 35 49 47 41 45 41 32 39 53 55 61 88 109 119 121 119 117 128 134 136 164 219 241 276 273 277 282 279 265 274 265 245 259 254 259 260
241 279 282 299 43 85 81 70 82 74 52 48 48 46 42 43 42 42 50 44 101 133 128 140 180 167 161 165 195 240 263 287 295 298 284 276 268 258 254 242 236 245 249 259
225 222 261 227 118 89 83 69 69 64 48 46 54 60 55 51 35 34 49 62 27 36 148 160 199 210 187 204 205 256 274 290 283 287 281 265 251 243 239 239 245 247 261 274
318 322 300 297 23 83 89 58 50 45 42 47 60 69 61 61 59 45 37 77 81 27 6 204 252 251 237 240 240 244 272 272 279 276 277 274 264 250 222 221 257 260 359 68
313 321 306 307 348 326 326 349 33 31 40 62 53 60 52 44 44 29 16 96 74 25 38 10 315 303 299 284 268 259 253 238 252 269 268 269 261 229 222 211 217 221 212 182